RUSSARO Weather Reports


time (UTC)temp
C
wind
direction
speed
KPH
gust
KPH
rain 1hr
cm
rain 24hr
cm
rain mn
cm
humidity
%
barometer
mb
20260506082724 8 276 20.9 22.5 0.00 0.00 0.00 66 1014.2
20260506080724 7 266 20.9 24.1 0.00 0.00 0.00 70 1014.2
20260506072725 7 248 22.5 22.5 0.00 0.00 0.00 78 1014.0
20260506070724 7 251 20.9 20.9 0.00 0.00 0.00 78 1013.8
20260506060724 7 261 19.3 20.9 0.00 0.00 0.00 74 1013.4
20260506050723 6 272 17.7 20.9 0.00 0.00 0.00 73 1012.9
20260506044724 6 281 19.3 22.5 0.00 0.00 0.00 71 1012.6
20260506042723 6 293 19.3 20.9 0.00 0.00 0.00 70 1012.4
20260506040723 5 298 17.7 20.9 0.00 0.00 0.00 75 1012.2
20260506034724 5 299 19.3 22.5 0.00 0.00 0.00 75 1012.0
20260506032723 4 297 17.7 22.5 0.00 0.00 0.00 80 1011.8
20260506030723 4 294 20.9 24.1 0.00 0.00 0.00 83 1011.6
20260506024723 3 288 22.5 27.4 0.00 0.00 0.00 87 1011.4
20260506022723 3 256 25.7 29.0 0.00 0.00 0.00 97 1011.4
20260506020723 3 249 24.1 25.7 0.00 0.00 0.00 97 1011.2
20260506014723 3 252 20.9 24.1 0.00 0.00 0.00 97 1011.0
20260506012723 3 252 19.3 20.9 0.00 0.00 0.00 97 1010.7
20260506010723 3 252 17.7 19.3 0.00 0.00 0.00 96 1010.6
20260506004722 3 255 17.7 19.3 0.00 0.00 0.00 95 1010.4
20260506002723 3 263 19.3 20.9 0.00 0.00 0.00 92 1010.3
20260506000723 3 282 22.5 24.1 0.00 0.00 0.00 89 1010.3
20260505234723 3 285 17.7 19.3 0.00 0.00 0.00 89 1010.1
20260505232723 3 280 20.9 22.5 0.00 0.00 0.00 90 1010.0
20260505230722 3 279 22.5 24.1 0.00 0.00 0.00 91 1009.9
20260505224722 3 282 22.5 24.1 0.00 0.00 0.00 91 1009.9
20260505222722 4 284 24.1 25.7 0.00 0.00 0.00 90 1009.9
20260505220723 4 285 24.1 25.7 0.00 0.00 0.00 89 1009.8
20260505214723 4 284 25.7 27.4 0.00 0.00 0.00 90 1009.7
20260505212722 4 281 29.0 32.2 0.00 0.00 0.00 88 1009.7
20260505210721 4 287 30.6 33.8 0.00 0.00 0.00 86 1009.6
20260505204722 4 283 30.6 33.8 0.00 0.00 0.00 78 1009.4
20260505202722 4 280 32.2 35.4 0.00 0.00 0.00 78 1009.3
20260505200722 4 283 30.6 33.8 0.00 0.00 0.00 75 1009.1
20260505194721 4 273 29.0 30.6 0.00 0.00 0.00 91 1009.0
20260505192722 4 270 30.6 32.2 0.00 0.00 0.00 92 1009.0
20260505190721 4 270 32.2 35.4 0.00 0.00 0.00 88 1008.9
20260505184721 4 268 33.8 37.0 0.00 0.00 0.00 89 1008.8
20260505182721 5 264 33.8 37.0 0.00 0.00 0.00 81 1008.6
20260505180721 5 266 37.0 40.2 0.00 0.00 0.00 79 1008.4
20260505174721 5 262 32.2 33.8 0.00 0.00 0.00 83 1008.3
20260505172721 5 256 33.8 37.0 0.00 0.00 0.00 83 1008.2
20260505170720 5 257 38.6 41.8 0.00 0.00 0.00 83 1008.1
20260505164721 6 260 38.6 40.2 0.00 0.00 0.00 82 1008.1
20260505162721 6 261 40.2 43.5 0.00 0.00 0.00 81 1008.1
20260505160721 6 260 38.6 43.5 0.00 0.00 0.00 78 1008.0
20260505152720 6 260 40.2 43.5 0.00 0.00 0.00 74 1007.9
20260505150721 7 261 38.6 41.8 0.00 0.00 0.00 75 1008.0
20260505124720 8 262 40.2 45.1 0.00 0.00 0.00 71 1007.2
20260505122720 8 263 37.0 41.8 0.00 0.00 0.00 68 1007.1
20260505120720 8 270 33.8 40.2 0.00 0.00 0.00 65 1006.9
20260505114720 7 274 35.4 40.2 0.00 0.00 0.00 67 1006.8
20260505112720 8 274 37.0 41.8 0.00 0.00 0.00 68 1006.6
20260505110719 8 277 40.2 45.1 0.00 0.00 0.00 68 1006.4
20260505100720 8 270 40.2 45.1 0.00 0.03 0.00 72 1005.8
20260505094719 8 270 41.8 45.1 0.00 0.15 0.00 74 1005.5
20260505092719 7 267 43.5 46.7 0.00 0.15 0.00 78 1005.2
20260505090719 8 271 41.8 45.1 0.00 0.15 0.00 71 1004.9
20260505084720 7 270 41.8 45.1 0.00 0.30 0.00 78 1004.6